{"data":{"norad_id":59682,"intl_designator":"2024-086A","name":"STARLINK-32108","alt_names":[],"object_type":"PAYLOAD","status":"ACTIVE","operator":null,"country":"US","launch_date":"2024-05-08","launch_site_code":"AFETR","launch_vehicle":null,"mission":null,"orbit_class":"UNKNOWN","rcs_meters":null,"size_class":null,"mass_kg":null,"dimensions":null,"purposes":["comms"],"wikipedia_slug":null,"has_3d_model":false,"image_url":null,"decayed_at":null,"tle_current":{"epoch":"2026-09-21T16:14:00.612672Z","epoch_age_seconds":69586,"freshness":"FRESH","line1":"1 59682U 24086A   26264.67639598  .00000371  00000+0  22997-4 0  9996","line2":"2 59682  43.0063  36.6769 0001247 271.2281  88.8428 15.27579448134033","mean_motion":15.27579448,"eccentricity":0.0001247,"inclination_deg":43.0063,"raan_deg":36.6769,"arg_perigee_deg":271.2281,"mean_anomaly_deg":88.8428,"bstar":2.2997e-5,"rev_number":13403,"period_min":94.266782777507,"perigee_km":482.19515881444,"apogee_km":483.90633903902,"semimajor_km":6861.1877489267,"source":"CELESTRAK","updated_at":"2026-09-22T09:00:49.031059Z"}}}